Location: Green River State Wildlife Area
(41.6390°N, 89.5080°W)
Time: 18:13:15
(UTC-06:00)

Daily predictions for brighter satellites

Satellite Brightness Start Highest point End
(mag) Time Altitude Azimuth Time Altitude Azimuth Time Altitude Azimuth
Cosmos 1975 Rocket 3.1 18:01:43 10° N 18:06:03 89° E 18:10:22 10° S
SKYMED 2 3.6 18:03:39 10° NNE 18:08:01 83° ESE 18:12:22 10° S
NOSS 2-2 (D) 4.0 18:04:43 10° SW 18:08:44 63° NW 18:13:24 10° NNE
Cosmos 1633 4.1 18:09:39 10° SE 18:12:10 18° E 18:14:41 10° NE
CZ-4 R/B 4.4 18:11:43 10° SSW 18:15:01 23° W 18:18:23 10° NW
FREGAT/IRIS 3.4 18:14:56 10° SE 18:17:45 33° ENE 18:20:34 10° N
ASTRO F (AKARI) 4.4 18:15:15 10° NNE 18:18:53 70° ESE 18:22:17 10° S
ALOS 3.0 18:16:25 10° SE 18:20:31 32° ENE 18:24:39 10° N
Cosmos 1536 Rocket 3.9 18:20:36 10° N 18:24:53 44° ENE 18:29:09 10° SSE
Cosmos 1818 3.7 18:22:26 10° SSW 18:27:44 56° ESE 18:33:04 10° NE
Meteor 1-18 Rocket 4.2 18:22:09 10° N 18:27:45 90° ESE 18:33:21 10° S
SL-16 R/B 2.3 18:26:02 10° NNW 18:31:45 88° WSW 18:37:25 10° SSE
Nadezhda 1 Rocket 4.1 18:27:32 10° N 18:33:38 81° W 18:39:41 10° S
SJ-6B 2.8 18:30:00 10° SSE 18:33:58 61° ENE 18:37:53 10° N
DNEPR-1 R/B 3.4 18:30:54 10° NW 18:35:10 88° WSW 18:39:26 10° SSE
FengYun 1-2 T 4.4 18:31:00 10° SE 18:36:12 47° ENE 18:41:27 10° N
TSX-5 3.7 18:33:23 10° S 18:36:22 37° ESE 18:39:05 12° NE
Resurs 01 Rocket 2.1 18:35:54 10° SE 18:39:57 37° ENE 18:44:00 10° N
Cosmos 1340 2.9 18:37:18 10° N 18:40:58 45° ENE 18:44:36 10° SSE
Cosmos 407 Rocket 3.5 18:36:07 10° SSW 18:41:21 90° WNW 18:46:41 10° NNE
Cosmos 1238 Rocket 2.7 18:39:39 10° NNE 18:42:27 32° ENE 18:45:08 10° SE
Gbstr 26 Del rocket 3.9 18:39:32 10° S 18:42:39 24° SE 18:43:57 20° ESE
Cosmos 676 Rocket 3.9 18:38:21 10° S 18:43:28 66° ESE 18:48:39 10° NNE
DELTA 2 R/B (1) 3.8 18:38:44 10° W 18:44:19 68° S 18:48:38 17° ESE
Meteor 1-20 Rocket 4.5 18:38:59 10° SSW 18:44:48 78° W 18:50:41 10° N
Cosmos 2181 Rocket 4.0 18:41:40 10° N 18:47:49 58° E 18:54:01 10° SSE
Cosmos 2322 Rocket 2.7 18:44:05 10° NNW 18:49:37 62° WSW 18:55:08 10° S
Tiangong 2 1.7 18:50:00 10° W 18:52:59 48° SSW 18:54:34 23° SE
Cosmos 1300 Rocket 3.6 18:52:06 10° S 18:56:24 58° E 19:00:46 10° NNE
Meteor 1-13 Rocket 4.1 18:51:09 10° N 18:56:41 67° E 19:02:16 10° SSE
Cosmos 1536 3.4 18:55:11 10° SSE 18:58:49 34° E 19:02:26 10° NNE
Cosmos 2322 3.7 18:56:44 10° NNW 19:02:25 59° ENE 19:07:31 13° SE
Resurs 1-3 3.7 18:58:19 10° SSE 19:02:35 53° ENE 19:06:52 10° N
Okean 1 4.2 19:00:23 10° NNW 19:04:20 51° W 19:08:16 10° S
CZ-2D R/B 3.6 19:03:05 29° ESE 19:04:29 41° ENE 19:08:05 10° N
FENGYUN 3A 3.6 19:00:27 10° SSE 19:05:51 85° ENE 19:11:19 10° NNW
Cosmos 1140 Rocket 3.4 19:01:25 10° S 19:06:29 64° ESE 19:11:35 10° NNE
Cosmos 2074 Rocket 4.3 19:01:09 10° SSE 19:06:57 42° E 19:12:48 10° NNE
Cosmos 2184 Rocket 4.3 19:01:49 10° SSE 19:07:40 41° E 19:13:29 10° NNE
Cosmos 1709 Rocket 4.0 19:01:27 10° S 19:07:42 83° W 19:13:54 10° N
Cosmos 1461 3.9 19:04:06 10° NW 19:07:56 44° WSW 19:11:52 10° S
SL-19 R/B 4.3 19:03:56 10° SSE 19:09:33 80° ENE 19:15:32 10° NNW
Cosmos 2208 Rocket 4.5 19:05:17 10° N 19:10:27 41° ENE 19:12:31 30° ESE
H-2A R/B 2.5 19:10:08 11° SSE 19:13:42 73° ENE 19:17:26 10° N
COSMOS 2428 3.1 19:10:01 10° N 19:15:22 40° ENE 19:16:58 33° E
Spot 2 Rocket 3.4 19:10:54 10° SSE 19:15:56 85° ENE 19:21:02 10° NNW
Cosmos 2237 4.4 19:10:23 10° NNW 19:15:59 51° ENE 19:18:33 30° ESE
Meteor 2-4 Rocket 3.6 19:10:46 10° N 19:16:18 61° ENE 19:21:40 10° SSE
SAR-Lupe-1 4.5 19:16:53 43° NE 19:16:53 43° NE 19:19:51 10° N
Cosmos 614 Rocket 3.8 19:13:50 10° S 19:18:51 62° ESE 19:23:51 10° NNE
SAR-Lupe-4 3.4 19:20:40 62° E 19:20:53 65° ENE 19:24:27 10° N
Helios 1A 3.0 19:21:30 48° ESE 19:22:12 55° ENE 19:26:17 10° N
Cosmos 2237 Rocket 3.8 19:20:42 10° N 19:23:53 18° NE 19:23:53 18° NE
Cosmos 1850 Rocket 4.0 19:20:05 10° S 19:25:17 60° ESE 19:30:32 10° NNE
Okean 1 Rocket 3.1 19:22:49 10° S 19:27:18 85° W 19:31:49 10° N
USA 229 DEB 4.1 19:23:20 10° NNW 19:30:09 46° NE 19:32:15 37° E
USA 229 4.1 19:23:26 10° NNW 19:30:15 45° NE 19:32:19 37° E
Meteor 1-11 Rocket 3.9 19:26:11 10° SSW 19:31:57 75° W 19:37:53 10° N
Envisat 3.7 19:33:04 36° NE 19:33:04 36° NE 19:36:56 10° N
Cosmos 2285 Rocket 4.3 19:27:08 10° N 19:33:21 47° ENE 19:34:37 42° E
GEOS 3 Rocket 4.1 19:28:18 10° NNE 19:33:27 60° NW 19:38:37 10° SW
Cosmos 2219 3.1 19:33:19 10° S 19:38:57 61° ESE 19:41:02 38° NE
Cosmos 2360 Rocket 2.7 19:36:14 10° NNW 19:41:48 60° WSW 19:47:02 12° S
Helios 1B rocket 3.2 19:44:10 41° S 19:44:10 41° S 19:46:54 10° SSW
Cosmos 2219 Rocket 2.9 19:39:43 10° N 19:44:08 37° NE 19:44:08 37° NE
Okean 1-7 Rocket 3.8 19:41:19 10° NNW 19:45:52 71° W 19:48:12 28° S
Cosmos 1025 Rocket 3.2 19:51:26 10° NNW 19:55:30 70° WNW 19:55:30 70° WNW
SL-16 R/B 4.3 19:53:11 10° NNE 19:54:13 13° NNE 19:54:13 13° NNE
ALOS 4.4 19:54:02 10° SSW 19:57:57 26° W 20:01:53 10° NW
Meteor 2-13 Rocket 4.2 19:56:00 10° S 20:02:02 73° E 20:08:07 10° NNE
Cosmos 2333 Rocket 3.1 20:05:10 10° NNW 20:09:02 38° NNE 20:09:02 38° NNE
BREEZE-M DEB (TANK) 3.4 20:09:37 10° WNW 20:12:05 52° WSW 20:12:05 52° WSW
Resurs 01 Rocket 4.1 20:13:15 10° SW 20:16:31 20° W 20:19:48 10° NW
NOSS 0 Rocket 4.4 20:14:38 10° NNW 20:19:14 48° N 20:19:14 48° N
COSMOS 2428 4.3 20:54:36 10° NW 20:59:04 29° W 20:59:04 29° W
Cosmos 2237 Rocket 4.1 21:03:37 10° NNW 21:05:44 24° NNW 21:05:44 24° NNW
Cosmos 2219 Rocket 4.5 21:23:55 10° NW 21:25:54 20° WNW 21:25:54 20° WNW
